Weather reports worldwide

Advertisment
Zamora, Spain (8130): temperature & dewpoint: 08.10.2019 14:00:00 - 14.10.2019 14:00:00 (CEST)Zamora, Spain (8130): wind speed: 08.10.2019 14:00:00 - 14.10.2019 14:00:00 (CEST)Zamora, Spain (8130): wind direction: 08.10.2019 14:00:00 - 14.10.2019 14:00:00 (CEST)Zamora, Spain (8130): reduced air pressure: 08.10.2019 14:00:00 - 14.10.2019 14:00:00 (CEST)Zamora, Spain (8130): visibility: 08.10.2019 14:00:00 - 14.10.2019 14:00:00 (CEST)Zamora, Spain (8130): precipitation: 08.10.2019 14:00:00 - 14.10.2019 14:00:00 (CEST)
Date & Time tt [°C] td [°C] ff [km/h] ff [kn] dd ppp [hPa] vv [km] rr [mm]
14.10.2019 14:00:00 - - - - - - - -
14.10.2019 13:00:00 15,0 8,5 11 6 SW 1010,6 20 0,0
14.10.2019 12:00:00 15,0 8,9 11 6 WSW 1010,4 20 0,0
14.10.2019 11:00:00 12,9 9,5 9 5 WSW 1010,9 20 -
14.10.2019 10:00:00 11,6 9,8 5 3 SW 1010,3 18 0,0
14.10.2019 09:00:00 11,6 9,8 5 3 W 1009,2 20 8,0
14.10.2019 08:00:00 14,7 12,2 5 3 SSW 1007,0 6 -
14.10.2019 07:00:00 15,1 10,3 8 4 SW 1006,8 20 0,0
14.10.2019 06:00:00 14,8 9,4 5 3 SW 1007,0 20 0,0
14.10.2019 05:00:00 14,8 8,7 5 3 WSW 1007,3 20 -
14.10.2019 04:00:00 13,5 8,3 2 1 W 1008,2 20 0,0
14.10.2019 03:00:00 13,9 8,5 2 1 N 1008,9 20 0,0
14.10.2019 02:00:00 14,5 8,4 4 2 SSE 1009,6 20 -
14.10.2019 01:00:00 15,1 8,1 2 1 SSW 1010,2 20 0,0
14.10.2019 00:00:00 16,1 8,3 2 1 S 1010,6 20 0,0
13.10.2019 23:00:00 16,6 8,0 4 2 S 1011,1 20 -
13.10.2019 22:00:00 17,7 8,3 4 2 SSW 1010,8 20 0,0
13.10.2019 21:00:00 18,7 8,1 8 4 SW 1011,0 20 0,0
13.10.2019 20:00:00 19,6 8,0 8 4 SW 1010,5 20 -
13.10.2019 19:00:00 20,9 7,8 11 6 SW 1010,0 20 0,0
13.10.2019 18:00:00 22,0 8,1 11 6 SW 1009,7 20 0,0
13.10.2019 17:00:00 23,3 8,2 11 6 WSW 1009,8 20 -
13.10.2019 16:00:00 23,6 8,1 11 6 SW 1010,0 20 0,0
13.10.2019 15:00:00 23,2 9,9 13 7 SW 1010,5 20 0,0
13.10.2019 14:00:00 21,1 9,7 9 5 SSW 1011,8 20 -
13.10.2019 13:00:00 19,9 9,5 13 7 SW 1012,6 20 0,0
13.10.2019 12:00:00 18,7 10,0 13 7 SW 1013,2 20 0,0
13.10.2019 11:00:00 17,0 9,7 11 6 SW 1013,7 20 -
13.10.2019 10:00:00 14,7 9,9 8 4 SW 1014,0 20 0,0
13.10.2019 09:00:00 14,0 9,8 8 4 SW 1013,6 20 0,0
13.10.2019 08:00:00 13,8 10,4 9 5 SW 1013,7 20 -
13.10.2019 07:00:00 14,6 11,0 8 4 W 1013,2 20 0,0
13.10.2019 06:00:00 14,9 11,9 4 2 W 1012,3 20 0,0
13.10.2019 05:00:00 15,4 12,0 4 2 W 1012,0 19 -
13.10.2019 04:00:00 16,2 12,2 4 2 S 1011,9 20 0,0
13.10.2019 03:00:00 17,4 12,7 5 3 SW 1011,7 20 0,0
13.10.2019 02:00:00 18,2 12,4 8 4 SW 1011,7 20 -
13.10.2019 01:00:00 18,7 10,0 4 2 SSW 1011,6 20 0,0
13.10.2019 00:00:00 19,5 7,6 8 4 S 1011,3 20 0,0
12.10.2019 23:00:00 21,1 7,7 8 4 S 1010,6 20 -
12.10.2019 22:00:00 21,9 7,3 8 4 S 1009,7 20 0,0
12.10.2019 21:00:00 23,4 7,5 5 3 S 1009,3 20 0,0
12.10.2019 20:00:00 24,9 6,6 5 3 S 1008,5 20 -
12.10.2019 19:00:00 26,1 7,2 13 7 SSW 1008,1 20 0,0
12.10.2019 18:00:00 27,3 6,7 11 6 SSW 1007,9 20 0,0
12.10.2019 17:00:00 28,2 6,9 13 7 SSW 1007,9 20 -
12.10.2019 16:00:00 28,0 6,7 15 8 SSW 1008,5 20 0,0
12.10.2019 15:00:00 27,6 6,9 18 10 SW 1009,4 20 0,0
12.10.2019 14:00:00 27,0 7,9 15 8 SW 1010,4 20 -
12.10.2019 13:00:00 24,8 10,3 4 2 WSW 1011,5 20 0,0
12.10.2019 12:00:00 22,0 12,0 5 3 SSE 1012,7 20 0,0
12.10.2019 11:00:00 17,7 11,3 2 1 E 1014,3 20 -
12.10.2019 10:00:00 15,4 10,2 2 1 ENE 1014,8 20 0,0
12.10.2019 09:00:00 17,0 10,4 2 1 W 1013,7 20 0,0
12.10.2019 08:00:00 17,2 10,3 4 2 WSW 1013,8 20 -
12.10.2019 07:00:00 17,5 10,1 5 3 SW 1013,6 20 0,0
12.10.2019 06:00:00 17,7 10,1 5 3 W 1013,7 20 0,0
12.10.2019 05:00:00 17,1 10,2 4 2 S 1013,6 20 -
12.10.2019 04:00:00 18,0 10,8 4 2 S 1013,9 20 0,0
12.10.2019 03:00:00 18,1 10,7 4 2 S 1014,3 20 0,0
12.10.2019 02:00:00 19,1 11,1 2 1 SSE 1014,3 20 -
12.10.2019 01:00:00 19,7 11,2 4 2 WSW 1014,4 20 0,0
12.10.2019 00:00:00 19,9 11,1 5 3 SW 1014,5 20 0,0
11.10.2019 23:00:00 20,6 11,0 4 2 SW 1014,4 20 -
11.10.2019 22:00:00 21,7 10,5 8 4 SSW 1013,6 20 0,0
11.10.2019 21:00:00 23,3 10,7 5 3 SSW 1013,0 20 0,0
11.10.2019 20:00:00 25,0 9,7 9 5 SW 1012,2 20 -
11.10.2019 19:00:00 26,5 8,9 8 4 SW 1012,0 20 0,0
11.10.2019 18:00:00 28,0 10,2 9 5 SW 1011,7 20 0,0
11.10.2019 17:00:00 28,6 9,8 8 4 S 1011,9 20 -
11.10.2019 16:00:00 27,7 9,0 2 1 E 1012,9 20 0,0
11.10.2019 15:00:00 26,5 8,0 4 2 ESE 1014,3 20 0,0
11.10.2019 14:00:00 23,2 6,9 2 1 SE 1016,4 20 -
11.10.2019 13:00:00 19,5 6,6 4 2 NNE 1018,4 20 0,0
11.10.2019 12:00:00 15,8 6,0 4 2 NE 1019,8 20 0,0
11.10.2019 11:00:00 12,6 5,7 5 3 E 1021,2 20 -
11.10.2019 10:00:00 9,3 4,7 5 3 ENE 1022,1 20 0,0
11.10.2019 09:00:00 7,7 3,5 2 1 NNE 1021,9 20 0,0
11.10.2019 08:00:00 7,8 3,5 4 2 NE 1021,7 20 -
11.10.2019 07:00:00 8,3 3,5 4 2 NE 1021,3 20 0,0
11.10.2019 06:00:00 8,9 3,3 4 2 NNE 1021,1 20 0,0
11.10.2019 05:00:00 9,4 3,4 4 2 NE 1020,8 20 -
11.10.2019 04:00:00 10,1 2,9 2 1 NE 1020,8 20 0,0
11.10.2019 03:00:00 11,4 2,7 4 2 NNE 1020,7 20 0,0
11.10.2019 02:00:00 12,5 3,2 4 2 ENE 1020,2 20 -
11.10.2019 01:00:00 13,5 2,7 2 1 NNW 1020,2 20 0,0
11.10.2019 00:00:00 14,8 2,7 4 2 NNE 1019,9 20 0,0
10.10.2019 23:00:00 16,2 2,9 4 2 NE 1019,3 20 -
10.10.2019 22:00:00 17,9 3,4 4 2 NNW 1018,5 20 0,0
10.10.2019 21:00:00 19,4 5,4 2 1 NNW 1017,8 20 0,0
10.10.2019 20:00:00 21,4 6,1 4 2 N 1017,0 19 -
10.10.2019 19:00:00 22,8 6,5 5 3 NNE 1016,6 20 0,0
10.10.2019 18:00:00 23,9 7,1 5 3 E 1016,3 20 0,0
10.10.2019 17:00:00 24,8 7,4 5 3 NNE 1016,4 20 -
10.10.2019 16:00:00 23,9 6,6 8 4 NE 1017,3 20 0,0
10.10.2019 15:00:00 23,0 6,7 8 4 NE 1018,1 20 0,0
10.10.2019 14:00:00 20,9 7,8 11 6 ENE 1019,7 20 -
10.10.2019 13:00:00 18,2 7,6 9 5 ENE 1021,0 20 0,0
10.10.2019 12:00:00 14,7 7,3 9 5 ENE 1022,5 20 0,0
10.10.2019 11:00:00 11,9 6,8 9 5 NE 1023,6 20 -
10.10.2019 10:00:00 9,5 6,4 8 4 NE 1023,9 20 0,0
10.10.2019 09:00:00 8,4 5,9 5 3 NE 1023,7 20 0,0
10.10.2019 08:00:00 8,5 6,1 11 6 NNE 1023,7 20 -
10.10.2019 07:00:00 8,9 6,0 8 4 NNE 1023,0 20 0,0
10.10.2019 06:00:00 9,0 5,9 8 4 NNE 1023,0 20 0,0
10.10.2019 05:00:00 9,5 5,7 8 4 NNE 1022,9 20 -
10.10.2019 04:00:00 10,1 5,9 9 5 NNE 1022,7 20 0,0
10.10.2019 03:00:00 10,4 5,6 8 4 NNE 1022,8 20 0,0
10.10.2019 02:00:00 11,4 5,3 5 3 NE 1022,6 20 -
10.10.2019 01:00:00 12,4 6,0 5 3 ENE 1022,0 20 0,0
10.10.2019 00:00:00 13,7 6,3 11 6 NNE 1021,6 20 0,0
09.10.2019 23:00:00 15,3 1,0 4 2 NNW 1020,5 20 -
09.10.2019 22:00:00 16,6 2,2 2 1 NNE 1019,5 20 0,0
09.10.2019 21:00:00 18,1 2,8 4 2 NNE 1018,8 20 0,0
09.10.2019 20:00:00 20,0 2,8 5 3 NNE 1017,8 20 -
09.10.2019 19:00:00 21,5 1,2 11 6 N 1017,2 20 0,0
09.10.2019 18:00:00 22,7 2,7 9 5 N 1016,6 20 0,0
09.10.2019 17:00:00 23,3 4,3 8 4 N 1016,8 20 -
09.10.2019 16:00:00 22,7 3,7 9 5 ENE 1017,4 20 0,0
09.10.2019 15:00:00 21,8 2,5 11 6 N 1018,2 20 0,0
09.10.2019 14:00:00 20,5 3,7 13 7 NNE 1018,9 20 -
09.10.2019 13:00:00 19,2 4,9 11 6 NE 1019,9 20 0,0
09.10.2019 12:00:00 17,0 5,3 11 6 NNE 1020,7 20 0,0
09.10.2019 11:00:00 15,1 5,6 9 5 NE 1021,3 20 -
09.10.2019 10:00:00 13,0 6,1 8 4 NE 1021,4 20 0,0
09.10.2019 09:00:00 13,0 7,7 5 3 NNE 1021,2 20 0,0
09.10.2019 08:00:00 13,8 9,6 5 3 NE 1020,4 20 -
09.10.2019 07:00:00 14,4 11,0 5 3 SSE 1018,9 20 0,0
09.10.2019 06:00:00 14,4 12,3 5 3 NNE 1019,6 20 0,0
09.10.2019 05:00:00 15,3 12,8 4 2 WSW 1018,2 20 -
09.10.2019 04:00:00 16,4 13,1 4 2 W 1017,5 20 0,0
09.10.2019 03:00:00 17,4 13,3 5 3 SW 1017,3 20 0,0
09.10.2019 02:00:00 18,1 13,2 4 2 W 1017,7 20 -
09.10.2019 01:00:00 18,9 12,9 4 2 W 1017,2 20 0,0
09.10.2019 00:00:00 20,4 12,9 4 2 W 1016,5 20 0,0
08.10.2019 23:00:00 21,4 12,8 4 2 W 1015,9 20 -
08.10.2019 22:00:00 22,0 12,5 2 1 W 1015,5 20 0,0
08.10.2019 21:00:00 23,4 12,4 5 3 WNW 1014,9 20 0,0
08.10.2019 20:00:00 24,9 12,5 5 3 W 1014,1 20 -
08.10.2019 19:00:00 26,4 11,7 9 5 W 1013,4 20 0,0
08.10.2019 18:00:00 28,0 11,1 9 5 W 1012,8 20 0,0
08.10.2019 17:00:00 29,7 10,8 8 4 W 1012,5 19 -
08.10.2019 16:00:00 29,3 10,9 8 4 W 1013,2 20 0,0
08.10.2019 15:00:00 28,4 12,7 8 4 WSW 1013,8 20 0,0
08.10.2019 14:00:00 27,0 11,9 8 4 WSW 1015,0 20 -

tt = temperature
td = dewpoint
ff = wind speed
dd = wind direction
ppp = reduced air pressure
vv = visibility
rr = precipitation

Next stations